TimeCDT,TemperatureF,Dew PointF,Humidity,Sea Level PressureIn,VisibilityMPH,Wind Direction,Wind SpeedMPH,Gust SpeedMPH,PrecipitationIn,Events,Conditions,WindDirDegrees,DateUTC
12:45 AM,80.6,75.2,84,29.95,7.0,ESE,6.9,-,N/A,,Clear,110,2013-06-15 05:45:00
1:44 AM,80.6,75.2,84,29.96,7.0,ESE,6.9,-,N/A,,Clear,120,2013-06-15 06:44:00
2:43 AM,78.8,75.2,89,29.95,7.0,ESE,5.8,-,N/A,,Clear,110,2013-06-15 07:43:00
3:46 AM,77.0,75.2,94,29.93,7.0,Calm,Calm,-,N/A,,Clear,0,2013-06-15 08:46:00
4:45 AM,75.2,75.2,100,29.95,7.0,Calm,Calm,-,N/A,,Partly Cloudy,0,2013-06-15 09:45:00
5:44 AM,73.4,73.4,100,29.96,7.0,Calm,Calm,-,N/A,,Partly Cloudy,0,2013-06-15 10:44:00
6:43 AM,73.4,73.4,100,29.96,7.0,Calm,Calm,-,N/A,,Partly Cloudy,0,2013-06-15 11:43:00
7:42 AM,78.8,77.0,94,29.99,7.0,WNW,2.3,-,N/A,,Scattered Clouds,290,2013-06-15 12:42:00
8:41 AM,84.2,75.2,74,30.01,7.0,East,8.1,-,N/A,,Scattered Clouds,90,2013-06-15 13:41:00
9:42 AM,86.0,73.4,66,30.03,7.0,SE,9.2,-,N/A,,Scattered Clouds,140,2013-06-15 14:42:00
10:43 AM,86.0,75.2,70,30.03,7.0,East,8.1,-,N/A,,Mostly Cloudy,90,2013-06-15 15:43:00
11:41 AM,87.8,75.2,66,30.02,7.0,East,9.2,-,N/A,,Mostly Cloudy,90,2013-06-15 16:41:00
12:40 PM,86.0,75.2,70,30.01,7.0,East,11.5,-,N/A,,Mostly Cloudy,100,2013-06-15 17:40:00
1:40 PM,87.8,75.2,66,30.00,7.0,East,10.4,-,N/A,,Scattered Clouds,80,2013-06-15 18:40:00
2:45 PM,87.8,75.2,66,29.99,7.0,ESE,10.4,-,N/A,,Scattered Clouds,110,2013-06-15 19:45:00
3:46 PM,87.8,75.2,66,29.99,7.0,East,8.1,-,N/A,,Mostly Cloudy,90,2013-06-15 20:46:00
4:40 PM,86.0,73.4,66,29.98,7.0,East,10.4,-,N/A,,Scattered Clouds,100,2013-06-15 21:40:00
5:46 PM,86.0,75.2,70,29.97,7.0,East,8.1,-,N/A,,Scattered Clouds,100,2013-06-15 22:46:00
6:42 PM,84.2,75.2,74,29.98,7.0,East,6.9,-,N/A,,Scattered Clouds,90,2013-06-15 23:42:00
7:41 PM,82.4,75.2,79,29.99,7.0,East,5.8,-,N/A,,Partly Cloudy,90,2013-06-16 00:41:00
8:41 PM,80.6,73.4,79,30.00,7.0,East,4.6,-,N/A,,Clear,90,2013-06-16 01:41:00
9:48 PM,80.6,75.2,84,29.98,7.0,ENE,5.8,-,N/A,,Clear,70,2013-06-16 02:48:00
10:47 PM,80.6,75.2,84,30.03,7.0,East,5.8,-,N/A,,Clear,100,2013-06-16 03:47:00
11:46 PM,80.6,75.2,84,30.03,7.0,East,5.8,-,N/A,,Clear,80,2013-06-16 04:46:00